Regional Weather Roundup
Issued by NWS

Home | Current Version | Previous Version | Text Only | Print | Product List | Glossary On
Versions: 1 2 3 4 5 6 7 8 9 10 11 12 13 14 15 16 17 18 19 20 21 22 23 24 25 26 27 28 29 30 31 32 33 34 35 36 37 38 39 40 41 42 43 44 45 46 47 48 49 50
000
ASUS44 KFWD 311315
RWRTX
NORTH TEXAS HOURLY WEATHER ROUNDUP
NATIONAL WEATHER SERVICE FORT WORTH TX
700 AM CST SAT JAN 31 2015

NOTE: "FAIR" INDICATES FEW OR NO CLOUDS BELOW 12,000 FEET WITH NO
SIGNIFICANT WEATHER AND/OR OBSTRUCTIONS TO VISIBILITY.

TXZ118-119-311400-
DALLAS/FORT WORTH METROPLEX

CITY           SKY/WX    TMP DP  RH WIND       PRES   REMARKS
DFW AIRPORT    CLOUDY    47  31  53 SE12      30.20S
DALLAS LOVE    CLOUDY    48  32  53 SE16      30.21F
FTW MEACHAM    CLOUDY    49  32  52 SE14      30.18F
DAL-EXECUTIVE  CLOUDY    48  31  51 SE10      30.20F
FTW-ALLIANCE   CLOUDY    48  30  49 SE14      30.18F
FTW-SPINKS     CLEAR     46  34  61 SE120     30.20F WCI  32
ARLINGTON      CLOUDY    48  31  51 SE10      30.20S
ADDISON        CLOUDY    46  30  53 SE10G17   30.21F
MESQUITE       PTCLDY    45  34  65 E5        30.24
LANCASTER      CLOUDY    44  33  64 E5        30.23S
$$

TXZ091>094-102>105-117-120-121-131>134-311400-
NORTH CENTRAL TEXAS

CITY           SKY/WX    TMP DP  RH WIND       PRES   REMARKS
SHRMAN/DENISON MOCLDY    43  34  71 E8        30.24S WCI  38
GAINESVILLE    CLOUDY    44  32  60 E13       30.22F WCI  38
BOWIE          CLOUDY    44  32  62 SE7       30.16F
BRIDGEPORT     CLOUDY    48  34  59 SE5       30.19S
DECATUR        CLOUDY    45  32  59 E9        30.17F
DENTON         CLOUDY    47  31  53 SE12      30.20F
MCKINNEY       MOCLDY    43  33  68 E5        30.23S
GREENVILLE     MOCLDY    45  32  61 E6        30.25S
ROCKWALL       MOCLDY    44  33  64 E6        30.22S
TERRELL        MOCLDY    46  33  60 SE7       30.24S
WAXAHACHIE     CLOUDY    46  35  66 SE7       30.22S
CLEBURNE       CLOUDY    46  32  57 SE13      30.20S
GRANBURY       CLOUDY    48  34  59 E9        30.19S
$$

TXZ083>090-098>101-113>116-127>130-139>142-154-155-311400-
WESTERN NORTH TEXAS

CITY           SKY/WX    TMP DP  RH WIND       PRES   REMARKS
WICHITA FALLS  LGT RAIN  43  37  79 E9        30.14F WCI  38
WF-KICKAPOO    DRIZZLE   37  29  73 E6        30.16S WCI  33
VERNON         CLOUDY    43  35  73 E8        30.14R WCI  38
ABILENE        CLOUDY    47  35  63 SE14      30.08F
ABILENE-DYESS  CLOUDY    48  37  66 SE14      30.07F
BRECKENRIDGE   CLOUDY    50  33  52 SE10      30.12S
GRAHAM         CLOUDY    47  34  62 SE8       30.13R
MINERAL WELLS  CLOUDY    47  32  56 SE13      30.14F
STEPHENVILLE   CLOUDY    46  33  61 SE10      30.17S
COMANCHE       CLOUDY    47  37  70 SE10      30.13S
BROWNWOOD      CLOUDY    48  37  66 SE12G17   30.12R
COLEMAN        CLOUDY    47  38  70 SE10      30.10S
BRADY          CLOUDY    46  37  71 SE13      30.07F
$$

TXZ143>147-156>162-174-175-311400-
CENTRAL TEXAS

CITY           SKY/WX    TMP DP  RH WIND       PRES   REMARKS
WACO           CLOUDY    46  34  62 SE12      30.19F
WACO-TSTC      MOCLDY    46  36  66 E7        30.21
WACO-MCGREGOR  CLOUDY    45  32  61 SE12      30.20S WCI  39
HILLSBORO      CLOUDY    46  33  60 E10G16    30.20S
CORSICANA      CLOUDY    46  33  60 SE9       30.24S
MEXIA          CLOUDY    43  34  71 E3        30.22R
HEARNE         CLOUDY    44  35  70 E3        30.22F
CAMERON        CLOUDY    45  37  74 E8        30.19F
TEMPLE         CLOUDY    45  32  61 E8        30.17S
KILLEEN        CLOUDY    45  37  73 SE8       30.15F
KILLEEN-SKYLRK CLOUDY    46  32  57 E7        30.14S
FORT HOOD      CLOUDY    45  36  69 SE8       30.16S
GATESVILLE     CLOUDY    45  36  70 CALM      30.19S
HAMILTON       CLOUDY    45  35  67 SE13      30.14F WCI  39
LAMPASAS       CLOUDY    45  39  79 E5        30.13S
$$

TXZ095>097-106>112-122>126-135>138-148>153-164>167-311400-
EAST TEXAS

CITY           SKY/WX    TMP DP  RH WIND       PRES   REMARKS
PARIS          MOCLDY    41  28  60 E7        30.28R WCI  36
SULPHUR SPRNGS CLOUDY    43  33  66 E6        30.28S WCI  40
MOUNT PLEASANT CLOUDY    42  31  64 E7        30.29R WCI  38
GILMER         CLOUDY    42  32  69 SE5       30.27R WCI  39
MINEOLA        CLOUDY    45  32  61 SE3       30.27R
TYLER          CLOUDY    44  32  62 E9        30.25R WCI  39
LONGVIEW       CLOUDY    43  31  62 E6        30.26R WCI  39
MARSHALL       CLOUDY    44  35  68 CALM      30.30R
ATHENS         CLOUDY    43  32  65 CALM      30.24S
PALESTINE      MOCLDY    44  34  68 E3        30.25S
JACKSONVILLE   MOCLDY    40  34  79 MISG      30.26R
HENDERSON      CLOUDY    41  32  70 E5        30.26S WCI  38
NACOGDOCHES    MOCLDY    41  32  70 SE5       30.25F WCI  38
LUFKIN         MOCLDY    42  35  76 E5        30.24S WCI  39
$$

SUPPLEMENTAL OBSERVATIONS (CENTRAL)

CITY           SKY/WX    TMP DP  RH WIND       PRES   REMARKS
LAKE TEXOMA      N/A     43  32  65 E5          N/A
CADDO GRASSLND   N/A     43  32  65 E2          N/A
PAT MAYSE LAKE   N/A     43  32  65 E5          N/A
GREENVILLE       N/A     43  32  65 E5          N/A
CEDAR HILL       N/A     46  32  57 E6G16       N/A
ATHENS           N/A     45  32  61 E7          N/A
PALESTINE        N/A     41  32  70 SE5         N/A  WCI  38
LAKE LIMESTONE   N/A     43  34  70 E7          N/A  WCI  39
MCGREGOR         N/A     45  32  61 SE9         N/A  WCI  40
TEMPLE           N/A     45  34  65 E8          N/A
$$

SUPPLEMENTAL OBSERVATIONS (WEST)

CITY           SKY/WX    TMP DP  RH WIND       PRES   REMARKS
MILLERS CREEK    N/A     45  36  70 SE6         N/A
POSSUM KINGDOM   N/A     46  32  57 SE7G16      N/A
LBJ GRASSLAND    N/A     46  32  57 E3          N/A
GRANBURY         N/A     46  32  57 SE9         N/A
COMANCHE         N/A     46  36  66 SE13        N/A
HAMBY            N/A     46  34  61 SE9G17      N/A
$$

SUPPLEMENTAL OBSERVATIONS (EAST)

CITY           SKY/WX    TMP DP  RH WIND       PRES   REMARKS
TEXARKANA        N/A     41  30  65 E2          N/A
LINDEN           N/A     39  30  70 E3          N/A
CADDO LAKE       N/A     41  32  70 E2          N/A
HENDERSON        N/A     41  32  70 E7          N/A  WCI  36
LUFKIN           N/A     41  34  75 MISG        N/A
N SABINE NF      N/A     37  34  87 MISG        N/A
$$

SUPPLEMENTAL OBSERVATIONS ARE A COLLECTION OF AUTOMATED INSTRUMENTS
THAT ARE MAINTAINED BY A VARIETY OF FEDERAL AND STATE AGENCIES.
CERTAIN ELEMENTS...SUCH AS HUMIDITY VALUES AND SUSTAINED WIND
SPEEDS...MAY BE APPROXIMATED.



USA.gov is the U.S. government's official web portal to all federal, state and local government web resources and services.